Accueil
METAR-TAF:

METAR-TAF

Aéroports :

Pittsburg, Kansas, États-Unis

latitude: 37-26-58N, longitude: 094-43-52W, altitude: 290 m

Observation

Le bulletin a été fait il y a 17 minutes, à 02:15 UTC
Vent 3 kt de sud
Température -1°C
Humidité 74%
Pression 1025 hPa
Visibilité: 16.1 km
Ciel clair

METAR: KPTS 110215Z AUTO 19003KT 10SM CLR M01/M05 A3028 RMK AO2 T10131050

Heure: 20:32 (02:32 UTC)


TAF: absent

Observations et prévisions météorologiques de plus de 4000 aéroports (messages METAR et TAF).

Les stations disponibles sont représentées par des disques jaunes et rouges sur la carte.

Passer la souris dessus pour voir le nom de la station.

Cliquer dessus pour voir les observations et prévisions météorologiques.

Pour changer de carte: cliquez sur les boutons verts avec une croix noire pour zoomer, sur le bouton vert avec un tiret pour effectuer un zoom arrière, ou sur les flèches vertes pour les cartes adjacentes.


METAR-TAF: